Weather History for Molokai, HI

Change the Weather History Date:

Wednesday, November 27, 2013

  Actual Average Record
Temperature  
Mean Temperature 73 °F -  
Max Temperature 82 °F 80 °F 87 °F (1982)
Min Temperature 64 °F 66 °F 57 °F (1985)
Cooling Degree Days 8    
Growing Degree Days 23 (Base 50)    
Moisture  
Dew Point 64 °F    
Average Humidity 71    
Maximum Humidity 93    
Minimum Humidity 47    
Precipitation  
Precipitation 0.00 in - - ()
Sea Level Pressure  
Sea Level Pressure 30.05 in    
Wind  
Wind Speed 7 mph (NE)    
Max Wind Speed 14 mph    
Max Gust Speed 21 mph    
Visibility 10 miles    
Events      
Averages and records for this station are not official NWS values.
T = Trace of Precipitation, MM = Missing Value Source: NWS Daily Summary

Daily Weather History Graph

Daily Weather History Graph

Search for Another Location

Airport:

Trip Planner

Search our weather history database for the weather conditions in past years. The results will help you decide how hot, cold, wet, or windy it might be!

Date:

Astronomy

Nov. 27, 2013 Rise Set
Actual Time 6:46 AM HST 5:45 PM HST
Civil Twilight 6:23 AM HST 6:09 PM HST
Nautical Twilight 5:55 AM HST 6:36 PM HST
Astronomical Twilight 5:28 AM HST 7:03 PM HST
Moon 1:38 AM HST (11/27) 1:53 PM HST (11/27)
Length of Visible Light 11h 46m
Length of Day
10h 58m
Waning Crescent, 30% of the Moon is Illuminated
Nov 27
Waning Crescent
Dec 2
New
Dec 9
First Quarter
Dec 16
Full
Dec 25
Last Quarter

Hourly Weather History & Observations

Time (HST) Temp. Heat Index Dew Point Humidity Pressure Visibility Wind Dir Wind Speed Gust Speed Precip Events Conditions
12:54 AM 73.9 °F - 66.0 °F 76% 30.12 in 10.0 mi NNE 10.4 mph 20.7 mph N/A   Clear
1:54 AM 73.0 °F - 64.9 °F 76% 30.11 in 10.0 mi NE 9.2 mph - N/A   Clear
2:54 AM 72.0 °F - 64.0 °F 76% 30.09 in 10.0 mi NE 8.1 mph - N/A   Clear
3:54 AM 72.0 °F - 64.0 °F 76% 30.07 in 10.0 mi NE 10.4 mph - N/A   Clear
4:54 AM 72.0 °F - 62.1 °F 71% 30.06 in 10.0 mi NE 8.1 mph - N/A   Clear
5:54 AM 69.1 °F - 60.1 °F 73% 30.05 in 10.0 mi NE 4.6 mph - N/A   Clear
6:54 AM 70.0 °F - 60.1 °F 71% 30.06 in 10.0 mi Calm Calm - N/A   Clear
7:54 AM 73.9 °F - 61.0 °F 64% 30.08 in 10.0 mi Calm Calm - N/A   Clear
8:54 AM 80.1 °F 81.2 °F 62.1 °F 54% 30.09 in 10.0 mi NE 4.6 mph - N/A   Clear
9:54 AM 80.1 °F 80.9 °F 60.1 °F 50% 30.09 in 10.0 mi SSE 8.1 mph - N/A   Scattered Clouds
10:54 AM 82.0 °F 82.4 °F 60.1 °F 47% 30.08 in 10.0 mi Variable 5.8 mph - N/A   Clear
11:54 AM 82.0 °F 84.1 °F 66.0 °F 58% 30.05 in 10.0 mi NE 9.2 mph - N/A   Scattered Clouds
12:54 PM 79.0 °F - 66.9 °F 66% 30.02 in 10.0 mi North 13.8 mph 19.6 mph N/A   Partly Cloudy
1:54 PM 82.0 °F 84.1 °F 66.0 °F 58% 30.00 in 10.0 mi NNE 9.2 mph 18.4 mph N/A   Clear
2:54 PM 82.0 °F 84.5 °F 66.9 °F 60% 29.99 in 10.0 mi NE 12.7 mph 17.3 mph N/A   Scattered Clouds
3:54 PM 80.1 °F 82.3 °F 66.9 °F 64% 29.98 in 10.0 mi NE 13.8 mph 20.7 mph N/A   Scattered Clouds
4:54 PM 79.0 °F - 66.9 °F 66% 29.97 in 10.0 mi NNE 6.9 mph - N/A   Scattered Clouds
5:54 PM 75.0 °F - 66.9 °F 76% 29.99 in 10.0 mi Calm Calm - N/A   Scattered Clouds
6:54 PM 72.0 °F - 66.0 °F 81% 30.02 in 10.0 mi Calm Calm - N/A   Clear
7:54 PM 69.1 °F - 64.9 °F 87% 30.04 in 10.0 mi Calm Calm - N/A   Clear
8:54 PM 66.9 °F - 64.0 °F 90% 30.05 in 10.0 mi Calm Calm - N/A   Clear
9:54 PM 64.0 °F - 62.1 °F 93% 30.05 in 10.0 mi Calm Calm - N/A   Clear
10:54 PM 66.9 °F - 64.0 °F 90% 30.04 in 10.0 mi North 5.8 mph - N/A   Clear
11:54 PM 73.0 °F - 69.1 °F 87% 30.04 in 10.0 mi NE 6.9 mph - N/A   Mostly Cloudy